Regional Weather Roundup
Issued by NWS Sioux Falls, SD

Home | Current Version | Previous Version | Text Only | Print | Product List | Glossary On
Versions: 1 2 3 4 5 6 7 8 9 10 11 12 13 14 15 16 17 18 19 20 21 22 23 24 25 26 27 28 29 30 31 32 33 34 35 36 37 38 39 40 41 42 43 44 45 46 47 48 49 50
000
ASUS43 KFSD 290010
RWRFSD

WEATHER ROUNDUP FOR SE SOUTH DAKOTA/SW MINNESOTA/NW IOWA
NATIONAL WEATHER SERVICE SIOUX FALLS SD
700 PM CDT THU JUL 28 2016

NOTE: "FAIR" INDICATES FEW OR NO CLOUDS BELOW 12,000 FEET WITH NO
SIGNIFICANT WEATHER AND OR OBSTRUCTIONS TO VISIBILITY.


SDZ038>040-050-052>070-290100-
SOUTHEAST SOUTH DAKOTA

CITY           SKY/WX    TMP DP  RH WIND       PRES   REMARKS
BROOKINGS      MOSUNNY   73  57  57 NE8       30.06R
CHAMBERLAIN    CLOUDY    80  60  50 NE7       30.04F
6HR MIN TEMP:  79; 6HR MAX TEMP:  83;

HURON          CLOUDY    79  58  48 NE10      30.03S
6HR MIN TEMP:  76; 6HR MAX TEMP:  82;

MADISON        FAIR      72  61  68 E8        30.07R
MITCHELL       CLOUDY    78  60  53 E7        30.03S
6HR MIN TEMP:  78; 6HR MAX TEMP:  82;

SIOUX FALLS    CLOUDY    75  59  57 N12       30.05R
6HR MIN TEMP:  74; 6HR MAX TEMP:  79;

WINNER         CLOUDY    72  64  76 SW6       30.06S
YANKTON        CLOUDY    79  55  44 N8        30.01S
$$

MNZ071-072-080-081-089-090-097-098-290100-
SOUTHWEST MINNESOTA

CITY           SKY/WX    TMP DP  RH WIND       PRES   REMARKS
FAIRMONT       MOSUNNY   73  63  68 N9        30.01R
JACKSON        MOSUNNY   72  59  64 N8        30.04R
LUVERNE        CLOUDY    72  59  64 NE10G17   30.04R
MARSHALL       SUNNY     74  55  51 NE10      30.04S
6HR MIN TEMP:  70; 6HR MAX TEMP:  76;

MONTEVIDEO     SUNNY     75  57  53 E6        30.05F
REDWOOD FALLS  SUNNY     75  57  53 NE10      30.03S
TRACY          SUNNY     74  57  55 N10       30.04S
WINDOM         SUNNY     73  61  64 N9        30.03S
WORTHINGTON    MOSUNNY   72  61  68 N9        30.04S
$$

IAZ001>003-012>014-020>022-031-032-NEZ013-014-SDZ071-290100-
NORTHWEST IOWA

CITY           SKY/WX    TMP DP  RH WIND       PRES   REMARKS
CHEROKEE       MOSUNNY   74  64  71 NE6       30.01S
DENISON        MOSUNNY   75  63  64 NE9       29.97S
ESTHERVILLE    MOSUNNY   72  62  71 N10       30.02R
LE MARS        PTSUNNY   77  63  61 N8        30.01S
SHELDON        MOSUNNY   73  63  68 NE6       30.02R
SIOUX CITY     CLOUDY    80  62  54 NE10      29.98F
6HR MIN TEMP:  80; 6HR MAX TEMP:  85;

SPENCER        CLOUDY    75  62  64 NE10      30.02R
6HR MIN TEMP:  71; 6HR MAX TEMP:  78;

STORM LAKE     MOSUNNY   73  63  68 N6G12     30.02R
$$

ABBREVIATIONS USED IN REMARKS
   TC - TEMPERATURE IN CELSIUS
  WCI - WIND CHILL INDEX
   HX - HEAT INDEX
  VSB - VISIBILITY





USA.gov is the U.S. government's official web portal to all federal, state and local government web resources and services.